UAL2533 KMEM-KIND

Flight info

Callsign UAL2533
Flight time 0h 53m
Altitude 33000
Route CRSON7 HUMMS PXV EMBRR SMUKE3
Aircraft B739/M-SDE2E3FGHIRWXY/LB1

Departure

Time 2026-05-06 02:34
Airport Memphis International Airport (KMEM)

Arrival

Time 2026-05-06 03:27
Airport Indianapolis International Airport (KIND)
Time Latitude Longitude Altitude Speed Heading
2026-05-06 02:13 35.04090 -89.98081 329 ft 0 kts 41°
2026-05-06 02:24 35.04086 -89.98085 326 ft 2 kts 41°
2026-05-06 02:24 35.04072 -89.98101 329 ft 3 kts 42°
2026-05-06 02:24 35.04057 -89.98118 329 ft 3 kts 43°
2026-05-06 02:25 35.04042 -89.98135 327 ft 3 kts 45°
2026-05-06 02:25 35.04028 -89.98153 329 ft 3 kts 47°
2026-05-06 02:25 35.04015 -89.98171 327 ft 3 kts 52°
2026-05-06 02:25 35.04004 -89.98191 329 ft 3 kts 66°
2026-05-06 02:26 35.03999 -89.98209 329 ft 1 kts 89°
2026-05-06 02:26 35.03998 -89.98212 329 ft 0 kts 90°
2026-05-06 02:28 35.03998 -89.98211 329 ft 0 kts 90°
2026-05-06 02:28 35.03995 -89.98193 325 ft 6 kts 110°
2026-05-06 02:28 35.03977 -89.98130 327 ft 9 kts 98°
2026-05-06 02:29 35.03974 -89.98052 328 ft 9 kts 90°
2026-05-06 02:29 35.03973 -89.97977 329 ft 9 kts 92°
2026-05-06 02:29 35.03977 -89.97904 327 ft 9 kts 85°
2026-05-06 02:29 35.03981 -89.97832 329 ft 8 kts 87°
2026-05-06 02:30 35.03986 -89.97763 328 ft 8 kts 71°
2026-05-06 02:30 35.04045 -89.97738 324 ft 14 kts 359°
2026-05-06 02:30 35.04108 -89.97740 327 ft 16 kts 358°
2026-05-06 02:30 35.04220 -89.97742 325 ft 16 kts 360°
2026-05-06 02:31 35.04328 -89.97744 325 ft 15 kts
2026-05-06 02:31 35.04450 -89.97748 326 ft 20 kts 358°
2026-05-06 02:31 35.04630 -89.97749 324 ft 19 kts 360°
2026-05-06 02:31 35.04719 -89.97752 324 ft 19 kts 358°
2026-05-06 02:32 35.04847 -89.97756 324 ft 18 kts 358°
2026-05-06 02:32 35.04971 -89.97758 323 ft 17 kts 359°
2026-05-06 02:32 35.05089 -89.97761 323 ft 17 kts 359°
2026-05-06 02:32 35.05204 -89.97763 324 ft 16 kts 359°
2026-05-06 02:33 35.05314 -89.97768 324 ft 16 kts 353°
2026-05-06 02:33 35.05386 -89.97782 328 ft 15 kts 354°
2026-05-06 02:34 35.04820 -89.97611 321 ft 115 kts 179°
2026-05-06 02:34 35.03811 -89.97589 421 ft 164 kts 180°
2026-05-06 02:34 35.02658 -89.97576 1176 ft 166 kts 180°
2026-05-06 02:34 35.01515 -89.97548 2050 ft 165 kts 179°
2026-05-06 02:35 35.00327 -89.97506 2575 ft 181 kts 180°
2026-05-06 02:35 34.98986 -89.97435 2874 ft 204 kts 174°
2026-05-06 02:35 34.97574 -89.96872 3278 ft 226 kts 162°
2026-05-06 02:35 34.96075 -89.96036 3745 ft 247 kts 149°
2026-05-06 02:36 34.94809 -89.94554 4538 ft 261 kts 136°
2026-05-06 02:36 34.93666 -89.92762 5220 ft 272 kts 136°
2026-05-06 02:36 34.92585 -89.90811 5923 ft 291 kts 115°
2026-05-06 02:36 34.92324 -89.88297 6558 ft 310 kts 91°
2026-05-06 02:37 34.92407 -89.85660 7356 ft 312 kts 91°
2026-05-06 02:37 34.92892 -89.83073 8089 ft 322 kts 61°
2026-05-06 02:37 34.94075 -89.80730 8872 ft 326 kts 60°
2026-05-06 02:37 34.95216 -89.78345 9592 ft 328 kts 54°
2026-05-06 02:38 34.96832 -89.76424 10236 ft 325 kts 25°
2026-05-06 02:38 34.98948 -89.75378 10544 ft 336 kts
2026-05-06 02:38 35.01286 -89.75364 10900 ft 340 kts 349°
2026-05-06 02:38 35.03687 -89.75478 11459 ft 348 kts 351°
2026-05-06 02:39 35.06115 -89.75574 12179 ft 350 kts 351°
2026-05-06 02:39 35.08540 -89.75690 12992 ft 348 kts 350°
2026-05-06 02:39 35.10935 -89.75811 13674 ft 351 kts 350°
2026-05-06 02:39 35.13416 -89.75945 14286 ft 355 kts 349°
2026-05-06 02:40 35.15870 -89.76085 14903 ft 359 kts 349°
2026-05-06 02:40 35.18369 -89.76225 15584 ft 361 kts 349°
2026-05-06 02:40 35.20882 -89.76365 16248 ft 362 kts 349°
2026-05-06 02:40 35.23411 -89.76505 16851 ft 365 kts 349°
2026-05-06 02:41 35.25959 -89.76644 17457 ft 368 kts 349°
2026-05-06 02:41 35.28529 -89.76780 18003 ft 372 kts 351°
2026-05-06 02:41 35.31154 -89.76317 18534 ft 397 kts 13°
2026-05-06 02:41 35.33665 -89.74785 19106 ft 409 kts 23°
2026-05-06 02:42 35.36113 -89.72987 19619 ft 414 kts 24°
2026-05-06 02:42 35.38582 -89.71125 20095 ft 418 kts 25°
2026-05-06 02:42 35.41074 -89.69247 20612 ft 422 kts 25°
2026-05-06 02:42 35.43582 -89.67371 21135 ft 424 kts 24°
2026-05-06 02:43 35.46114 -89.65493 21594 ft 427 kts 24°
2026-05-06 02:43 35.48672 -89.63608 22040 ft 430 kts 24°
2026-05-06 02:43 35.51249 -89.61713 22498 ft 433 kts 24°
2026-05-06 02:43 35.53843 -89.59806 22945 ft 436 kts 24°
2026-05-06 02:44 35.56452 -89.57888 23352 ft 439 kts 25°
2026-05-06 02:44 35.59087 -89.55948 23748 ft 443 kts 25°
2026-05-06 02:44 35.61736 -89.53993 24151 ft 446 kts 25°
2026-05-06 02:44 35.64391 -89.52003 24562 ft 448 kts 25°
2026-05-06 02:45 35.67055 -89.49988 24978 ft 451 kts 25°
2026-05-06 02:45 35.69738 -89.47974 25361 ft 453 kts 24°
2026-05-06 02:45 35.72445 -89.45954 25740 ft 456 kts 24°
2026-05-06 02:45 35.75161 -89.43930 26131 ft 458 kts 24°
2026-05-06 02:46 35.77894 -89.41893 26515 ft 460 kts 24°
2026-05-06 02:46 35.80634 -89.39848 26882 ft 462 kts 23°
2026-05-06 02:46 35.83390 -89.37789 27212 ft 465 kts 23°
2026-05-06 02:46 35.86161 -89.35714 27572 ft 467 kts 23°
2026-05-06 02:47 35.88940 -89.33634 27934 ft 468 kts 22°
2026-05-06 02:47 35.91733 -89.31541 28225 ft 471 kts 22°
2026-05-06 02:47 35.94540 -89.29434 28547 ft 473 kts 22°
2026-05-06 02:47 35.97354 -89.27317 28867 ft 475 kts 22°
2026-05-06 02:48 36.00181 -89.25192 29205 ft 476 kts 22°
2026-05-06 02:48 36.03023 -89.23051 29490 ft 479 kts 22°
2026-05-06 02:48 36.05840 -89.20930 29792 ft 480 kts 22°
2026-05-06 02:48 36.08704 -89.18765 30501 ft 473 kts 21°
2026-05-06 02:49 36.11470 -89.16673 30935 ft 472 kts 21°
2026-05-06 02:49 36.14279 -89.14553 31237 ft 474 kts 21°
2026-05-06 02:49 36.17100 -89.12423 31546 ft 476 kts 21°
2026-05-06 02:49 36.19921 -89.10288 31928 ft 474 kts 20°
2026-05-06 02:50 36.22730 -89.08161 32348 ft 472 kts 20°
2026-05-06 02:50 36.25534 -89.06037 32710 ft 472 kts 20°
2026-05-06 02:50 36.28343 -89.03911 32798 ft 475 kts 20°
2026-05-06 02:51 36.34043 -88.99596 32807 ft 484 kts 20°
2026-05-06 02:51 36.39838 -88.95190 32808 ft 492 kts 20°
2026-05-06 02:52 36.45669 -88.90754 32784 ft 491 kts 20°
2026-05-06 02:52 36.51490 -88.86316 32793 ft 490 kts 20°
2026-05-06 02:53 36.57289 -88.81883 32805 ft 488 kts 20°
2026-05-06 02:53 36.63076 -88.77462 32816 ft 488 kts 20°
2026-05-06 02:54 36.68859 -88.73035 32812 ft 488 kts 20°
2026-05-06 02:54 36.74638 -88.68600 32819 ft 487 kts 20°
2026-05-06 02:55 36.80415 -88.64165 32804 ft 488 kts 20°
2026-05-06 02:55 36.86203 -88.59709 32810 ft 490 kts 20°
2026-05-06 02:56 36.92011 -88.55230 32813 ft 490 kts 21°
2026-05-06 02:56 36.97817 -88.50748 32824 ft 491 kts 21°
2026-05-06 02:57 37.03633 -88.46248 32831 ft 491 kts 21°
2026-05-06 02:57 37.09453 -88.41737 32838 ft 492 kts 21°
2026-05-06 02:58 37.15239 -88.37244 32855 ft 493 kts 21°
2026-05-06 02:58 37.21075 -88.32703 32859 ft 494 kts 21°
2026-05-06 02:59 37.26916 -88.28149 32860 ft 495 kts 21°
2026-05-06 02:59 37.32761 -88.23583 32866 ft 495 kts 21°
2026-05-06 03:00 37.38606 -88.19009 32861 ft 495 kts 21°
2026-05-06 03:00 37.44453 -88.14424 32857 ft 496 kts 21°
2026-05-06 03:01 37.50304 -88.09831 32861 ft 496 kts 21°
2026-05-06 03:01 37.56157 -88.05226 32858 ft 496 kts 21°
2026-05-06 03:02 37.62014 -88.00606 32865 ft 497 kts 21°
2026-05-06 03:02 37.67850 -87.95997 32862 ft 497 kts 21°
2026-05-06 03:03 37.73715 -87.91356 32858 ft 497 kts 22°
2026-05-06 03:03 37.79574 -87.86714 32860 ft 497 kts 22°
2026-05-06 03:04 37.85429 -87.82063 32858 ft 497 kts 22°
2026-05-06 03:04 37.91283 -87.77406 32852 ft 497 kts 22°
2026-05-06 03:05 37.97175 -87.72888 32849 ft 493 kts 19°
2026-05-06 03:05 38.03173 -87.68646 32380 ft 500 kts 19°
2026-05-06 03:05 38.06209 -87.66513 31924 ft 496 kts 19°
2026-05-06 03:06 38.09212 -87.64376 31336 ft 493 kts 19°
2026-05-06 03:06 38.12182 -87.62242 30796 ft 489 kts 20°
2026-05-06 03:06 38.15125 -87.60115 30235 ft 484 kts 20°
2026-05-06 03:06 38.18037 -87.58008 29701 ft 479 kts 20°
2026-05-06 03:07 38.20923 -87.55919 29161 ft 475 kts 20°
2026-05-06 03:07 38.23783 -87.53849 28622 ft 471 kts 20°
2026-05-06 03:07 38.26617 -87.51799 28090 ft 467 kts 20°
2026-05-06 03:07 38.29394 -87.49786 27569 ft 464 kts 21°
2026-05-06 03:08 38.32186 -87.47760 27043 ft 460 kts 21°
2026-05-06 03:08 38.34955 -87.45748 26522 ft 457 kts 21°
2026-05-06 03:08 38.37702 -87.43751 25996 ft 453 kts 21°
2026-05-06 03:08 38.40431 -87.41765 25485 ft 450 kts 22°
2026-05-06 03:09 38.43141 -87.39791 24971 ft 447 kts 22°
2026-05-06 03:09 38.45834 -87.37829 24461 ft 445 kts 22°
2026-05-06 03:09 38.48511 -87.35876 23944 ft 442 kts 22°
2026-05-06 03:09 38.51178 -87.33931 23449 ft 440 kts 23°
2026-05-06 03:10 38.53823 -87.31998 22954 ft 437 kts 23°
2026-05-06 03:10 38.56455 -87.30074 22452 ft 434 kts 23°
2026-05-06 03:10 38.59068 -87.28163 21959 ft 432 kts 23°
2026-05-06 03:10 38.61667 -87.26260 21466 ft 429 kts 24°
2026-05-06 03:11 38.64251 -87.24364 20980 ft 426 kts 24°
2026-05-06 03:11 38.66815 -87.22477 20502 ft 424 kts 24°
2026-05-06 03:11 38.69359 -87.20588 20020 ft 421 kts 25°
2026-05-06 03:11 38.71886 -87.18703 19543 ft 419 kts 25°
2026-05-06 03:12 38.74398 -87.16831 19061 ft 416 kts 25°
2026-05-06 03:12 38.76640 -87.15160 18638 ft 415 kts 25°
2026-05-06 03:12 38.79127 -87.13307 18169 ft 413 kts 25°
2026-05-06 03:12 38.81607 -87.11458 17694 ft 411 kts 25°
2026-05-06 03:13 38.84067 -87.09621 17309 ft 407 kts 25°
2026-05-06 03:13 38.86507 -87.07798 16859 ft 405 kts 25°
2026-05-06 03:13 38.88935 -87.05983 16407 ft 403 kts 25°
2026-05-06 03:13 38.91319 -87.04203 15953 ft 401 kts 26°
2026-05-06 03:14 38.93728 -87.02401 15486 ft 400 kts 26°
2026-05-06 03:14 38.96127 -87.00608 15024 ft 398 kts 25°
2026-05-06 03:14 38.98563 -86.98833 14557 ft 397 kts 25°
2026-05-06 03:14 39.00935 -86.97128 14090 ft 395 kts 25°
2026-05-06 03:15 39.03364 -86.95386 13616 ft 393 kts 25°
2026-05-06 03:15 39.05716 -86.93695 13157 ft 392 kts 25°
2026-05-06 03:15 39.08096 -86.91975 12675 ft 392 kts 25°
2026-05-06 03:15 39.10454 -86.90263 12197 ft 386 kts 25°
2026-05-06 03:16 39.12775 -86.88552 11513 ft 385 kts 26°
2026-05-06 03:16 39.15055 -86.86783 10961 ft 379 kts 28°
2026-05-06 03:16 39.17279 -86.85026 10532 ft 368 kts 28°
2026-05-06 03:16 39.19407 -86.83348 10390 ft 349 kts 28°
2026-05-06 03:17 39.21436 -86.81761 10233 ft 333 kts 29°
2026-05-06 03:17 39.23385 -86.80240 10103 ft 321 kts 28°
2026-05-06 03:17 39.24632 -86.79270 10008 ft 311 kts 28°
2026-05-06 03:17 39.26455 -86.77837 9775 ft 304 kts 31°
2026-05-06 03:18 39.28172 -86.76315 9602 ft 298 kts 34°
2026-05-06 03:18 39.29850 -86.74753 9312 ft 297 kts 35°
2026-05-06 03:18 39.31517 -86.73195 9015 ft 296 kts 34°
2026-05-06 03:18 39.33185 -86.71647 8703 ft 295 kts 35°
2026-05-06 03:19 39.34848 -86.70113 8386 ft 294 kts 34°
2026-05-06 03:19 39.36511 -86.68584 8078 ft 292 kts 34°
2026-05-06 03:19 39.38166 -86.67064 7748 ft 291 kts 35°
2026-05-06 03:19 39.39818 -86.65547 7414 ft 291 kts 34°
2026-05-06 03:20 39.43248 -86.62836 6750 ft 285 kts 28°
2026-05-06 03:20 39.44949 -86.61580 6428 ft 278 kts 29°
2026-05-06 03:20 39.46569 -86.60269 6116 ft 272 kts 37°
2026-05-06 03:21 39.47967 -86.58671 5822 ft 265 kts 44°
2026-05-06 03:21 39.49268 -86.56994 5551 ft 263 kts 44°
2026-05-06 03:21 39.50536 -86.55345 5450 ft 253 kts 44°
2026-05-06 03:21 39.51738 -86.53796 5371 ft 235 kts 44°
2026-05-06 03:22 39.52857 -86.52362 5260 ft 218 kts 44°
2026-05-06 03:22 39.53899 -86.51027 5147 ft 204 kts 44°
2026-05-06 03:22 39.54882 -86.49769 4929 ft 194 kts 44°
2026-05-06 03:22 39.55824 -86.48564 4674 ft 185 kts 43°
2026-05-06 03:23 39.56736 -86.47400 4455 ft 184 kts 43°
2026-05-06 03:23 39.57639 -86.46247 4215 ft 178 kts 43°
2026-05-06 03:23 39.58504 -86.45141 4033 ft 173 kts 43°
2026-05-06 03:23 39.59373 -86.44033 3760 ft 172 kts 43°
2026-05-06 03:24 39.60189 -86.42988 3514 ft 158 kts 43°
2026-05-06 03:24 39.60946 -86.42021 3328 ft 152 kts 42°
2026-05-06 03:24 39.61696 -86.41065 3118 ft 149 kts 42°
2026-05-06 03:24 39.62429 -86.40129 2928 ft 147 kts 43°
2026-05-06 03:25 39.63157 -86.39201 2735 ft 146 kts 46°
2026-05-06 03:25 39.63872 -86.38287 2527 ft 145 kts 48°
2026-05-06 03:25 39.64610 -86.37342 2350 ft 154 kts 49°
2026-05-06 03:25 39.65390 -86.36348 2139 ft 159 kts 44°
2026-05-06 03:26 39.66164 -86.35387 1928 ft 154 kts 44°
2026-05-06 03:26 39.66909 -86.34410 1726 ft 150 kts 44°
2026-05-06 03:26 39.67660 -86.33454 1529 ft 151 kts 43°
2026-05-06 03:26 39.68410 -86.32495 1338 ft 151 kts 44°
2026-05-06 03:27 39.69157 -86.31520 1104 ft 154 kts 44°
2026-05-06 03:27 39.69924 -86.30566 854 ft 148 kts 44°
2026-05-06 03:27 39.70582 -86.29734 785 ft 105 kts 45°
2026-05-06 03:27 39.70952 -86.29267 779 ft 43 kts 45°
2026-05-06 03:28 39.71042 -86.29155 779 ft 13 kts 41°
2026-05-06 03:28 39.71192 -86.29046 782 ft 28 kts 20°
2026-05-06 03:28 39.71372 -86.28983 783 ft 26 kts 18°
2026-05-06 03:28 39.71503 -86.28852 783 ft 20 kts 47°
2026-05-06 03:29 39.71596 -86.28837 781 ft 14 kts 318°
2026-05-06 03:29 39.71637 -86.28942 781 ft 14 kts 256°
2026-05-06 03:29 39.71583 -86.29039 782 ft 13 kts 242°
2026-05-06 03:29 39.71609 -86.29139 783 ft 13 kts 317°
2026-05-06 03:30 39.71674 -86.29197 785 ft 11 kts 324°
2026-05-06 03:30 39.71709 -86.29264 786 ft 6 kts 250°
2026-05-06 03:30 39.71676 -86.29299 785 ft 6 kts 218°
2026-05-06 03:30 39.71650 -86.29326 785 ft 3 kts 219°
2026-05-06 03:31 39.71645 -86.29331 785 ft 1 kts 219°
2026-05-06 03:31 39.71644 -86.29332 785 ft 0 kts 219°